Location: Newark
(45.5000°N, 11.4167°E)
Time: 20:25:47
(UTC+00:00)

Transit 2A Rocket - Pass Details

Date: 02 September 2019
Orbit: 593 x 910 km, 66.7° (Epoch: 14 October)

Event Time Altitude Azimuth Distance (km) Brightness Sun altitude
Rises 15:14:21 0° 193° (SSW) 3,430 8.8 26.4°
Reaches altitude 10° 15:16:58 10° 188° (S) 2,458 8.0 25.9°
Maximum altitude 15:22:22 47° 116° (ESE) 1,052 5.7 25.0°
Drops below altitude 10° 15:27:22 10° 44° (NE) 2,275 7.1 24.2°
Sets 15:29:43 0° 38° (NE) 3,152 7.7 23.8°
